Weather History for KNAK - June, 2013

Change the Weather History Date:

Wednesday, June 12, 2013

  Actual Average (KBWI) Record (KBWI)
Temperature  
Mean Temperature 77 °F 72 °F  
Max Temperature 86 °F 82 °F 96 °F (1986)
Min Temperature 70 °F 61 °F 46 °F (1972)
Degree Days  
Heating Degree Days 0 0  
Month to date heating degree days 13  
Since 1 June heating degree days 13  
Since 1 July heating degree days 4762  
Cooling Degree Days 12 7  
Month to date cooling degree days 70  
Year to date cooling degree days 154  
Since 1 June cooling degree days 70  
Growing Degree Days 27 (Base 50)    
Moisture  
Dew Point 67 °F    
Average Humidity 70    
Maximum Humidity 84    
Minimum Humidity 57    
Precipitation  
Precipitation 0.00 in 0.11 in 2.68 in (1911)
Month to date precipitation 1.46  
Year to date precipitation 18.49  
Snow  
Snow 0.00 in 0.00 in - ()
Month to date snowfall 0.0  
Since 1 July snowfall 20.1  
Snow Depth -    
Sea Level Pressure  
Sea Level Pressure 29.84 in    
Wind  
Wind Speed 4 mph (NW)    
Max Wind Speed 12 mph    
Max Gust Speed -    
Visibility 9 miles    
Events      
T = Trace of Precipitation, MM = Missing Value Source: NWS Daily Summary

Daily Weather History Graph

Daily Weather History Graph

Search for Another Location

Airport or City:

Trip Planner

Search our weather history database for the weather conditions in past years. The results will help you decide how hot, cold, wet, or windy it might be!

Date:

Astronomy

Jun. 12, 2013 Rise Set
Actual Time 5:39 AM EDT 8:32 PM EDT
Civil Twilight 5:07 AM EDT 9:04 PM EDT
Nautical Twilight 4:27 AM EDT 9:44 PM EDT
Astronomical Twilight 3:41 AM EDT 10:30 PM EDT
Moon 9:15 AM EDT (6/12) 11:08 PM EDT (6/12)
Length of Visible Light 15h 56m
Length of Day
14h 52m
Waxing Crescent, 14% of the Moon is Illuminated
Jun 12
Waxing Crescent
Jun 16
First Quarter
Jun 23
Full
Jun 30
Last Quarter
Jul 8
New

Hourly Weather History & Observations

Time (EDT) Temp. Heat Index Dew Point Humidity Pressure Visibility Wind Dir Wind Speed Gust Speed Precip Events Conditions
12:54 AM 75.0 °F - 64.0 °F 69% 29.85 in 10.0 mi West 4.6 mph - N/A   Clear
1:54 AM 73.0 °F - 64.0 °F 73% 29.84 in 10.0 mi Calm Calm - N/A   Clear
2:54 AM 70.0 °F - 64.9 °F 84% 29.84 in 10.0 mi Calm Calm - N/A   Clear
3:54 AM 71.1 °F - 64.9 °F 81% 29.86 in 10.0 mi WNW 3.5 mph - N/A   Clear
4:54 AM 70.0 °F - 64.0 °F 81% 29.84 in 10.0 mi Calm Calm - N/A   Clear
5:54 AM 70.0 °F - 63.0 °F 78% 29.86 in 10.0 mi Calm Calm - N/A   Clear
6:54 AM 71.1 °F - 64.0 °F 78% 29.86 in 10.0 mi Calm Calm - N/A   Scattered Clouds
7:54 AM 73.9 °F - 66.0 °F 76% 29.87 in 10.0 mi NW 3.5 mph - N/A   Clear
8:54 AM 75.0 °F - 66.0 °F 73% 29.87 in 10.0 mi NW 3.5 mph - N/A   Partly Cloudy
9:54 AM 79.0 °F - 66.0 °F 64% 29.86 in 10.0 mi West 8.1 mph - N/A   Clear
10:54 AM 81.0 °F 83.8 °F 68.0 °F 65% 29.85 in 10.0 mi WNW 9.2 mph - N/A   Scattered Clouds
11:54 AM 82.0 °F 84.9 °F 68.0 °F 62% 29.85 in 10.0 mi NNW 10.4 mph - N/A   Scattered Clouds
12:54 PM 82.9 °F 85.8 °F 68.0 °F 60% 29.86 in 10.0 mi WNW 9.2 mph - N/A   Partly Cloudy
1:54 PM 82.9 °F 85.4 °F 66.9 °F 58% 29.85 in 8.0 mi NW 11.5 mph - N/A   Scattered Clouds
2:54 PM 84.0 °F 87.0 °F 68.0 °F 58% 29.83 in 9.0 mi NNW 8.1 mph - N/A   Partly Cloudy
3:54 PM 84.9 °F 88.2 °F 68.0 °F 57% 29.83 in 9.0 mi NNW 8.1 mph - N/A   Clear
4:54 PM 84.0 °F 87.8 °F 69.1 °F 61% 29.82 in 9.0 mi NNW 4.6 mph - N/A   Clear
5:54 PM 84.9 °F 89.4 °F 70.0 °F 61% 29.80 in 9.0 mi Calm Calm - N/A   Clear
6:54 PM 82.9 °F 88.0 °F 72.0 °F 69% 29.80 in 8.0 mi East 8.1 mph - N/A   Clear
7:54 PM 80.1 °F 83.2 °F 70.0 °F 71% 29.83 in 7.0 mi ESE 5.8 mph - N/A   Clear
8:54 PM 79.0 °F - 70.0 °F 74% 29.83 in 8.0 mi East 4.6 mph - N/A   Partly Cloudy
9:54 PM 78.1 °F - 70.0 °F 76% 29.83 in 6.0 mi SE 4.6 mph - N/A   Haze
10:54 PM 77.0 °F - 71.1 °F 82% 29.84 in 8.0 mi Calm Calm - N/A   Scattered Clouds
11:54 PM 77.0 °F - 70.0 °F 79% 29.83 in 8.0 mi Calm Calm - N/A   Clear